SCP
0 0 0 0 0 0 0 0 0 0 0 0 0 0 0 0 0 0 0 0 0 0 0 0 0 0 0 0 0 0 0 0 0 0 0 0 0 0 0 0 0 0 0 0 0
0 0 0 0 0 0 0 0 0 0 0 0 0 0 0 0 0 0 0 0 0 0 0 0 0 0 0 0 0 0 0 0 0 0 0 0 0 0 0 0 0 0 0 0 0
0 0 0 0 0 0 0 0 0 0 0 0 0 0 0 0 0 0 0 0 0 0 0 0 0 0 0 0 0 0 0 0 0 0 0 0 0 0 0 0 0 0 0 0 0
0 0 0 0 0 0 0 0 0 0 0 0 0 0 0 0 0 0 0 0 0 0 0 0 0 0 0 0 0 0 0 0 0 0 0 0 0 0 0 0 0 0 0 0 0
0 0 0 0 0 0 0 0 0 0 0 0 0 0 0 0 0 0 0 0 0 0 0 0 0 0 0 0 0 0 0 0 0 0 0 0 0 0 0 0 0 0 0 0 0
0 0 0 0 0 0 0 0 0 0 0 0 0 0 0 0 0 0 0 0 0 0 0 0 0 0 0 0 0 0 0 0 0 0 0 0 0 0 0 0 0 0 0 0 0
0 0 0 0 0 0 0 0 0 0 0 0 0 0 0 0 0 0 0 0 0 0 0 0 0 0 0 0 0 0 0 0 0 0 0 0 0 0 0 0 0 0 0 0 0
0 0 0 0 0 0 0 0 0 0 0 0 0 0 0 0 0 0 0 0 0 0 0 0 0 0 0 0 0 0 0 0 0 0 0 0 0 0 0 0 0 0 0 0 0
0 0 0 0 0 0 0 0 0 0 0 0 0 0 0 0 0 0 0 0 0 0 0 0 0 0 0 0 0 0 0 0 0 0 0 0 0 0 0 0 0 0 0 0 0
0 0 0 0 0 0 0 0 0 0 0 0 0 0 0 0 0 0 0 0 0 0 0 0 0 0 0 0 0 0 0 0 0 0 0 0 0 0 0 0 0 0 0 0 0
0 0 0 0 0 0 0 0 0 0 0 0 0 0 0 0 0 0 0 0 0 0 0 0 0 0 0 0 0 0 0 0 0 0 0 0 0 0 0 0 0 0 0 0 0
0 0 0 0 0 0 0 0 0 0 0 0 0 0 0 0 0 0 0 0 0 0 0 0 0 0 0 0 0 0 0 0 0 0 0 0 0 0 0 0 0 0 0 0 0
0 0 0 0 0 0 0 0 0 0 0 0 0 0 0 0 0 0 0 0 0 0 0 0 0 0 0 0 0 0 0 0 0 0 0 0 0 -0 0 0 0 0 0 0 0
0 0 0 0 0 0 0 0 0 0 0 0 0 0 0 0 0 0 0 0 0 0 0 0 0 0 0 0 0 0 0 0 0 0 0 0 -0 -0 0 0 0 0 0 0 0
0 0 0 0 0 0 0 0 0 0 0 0 0 0 0 0 0 0 0 0 0 0 0 0 0 0 0 0 0 0 0 0 0 0 0 0 0 -0 0 0 0 0 0 0 0
0 0 0 0 0 0 0 0 0 0 0 0 0 0 0 0 0 0 0 0 0 0 0 0 0 0 0 0 0 0 0 0 0 0 0 0 0 -0 0 0 0 0 0 0 0
0 0 0 0 0 0 0 -0 0 0 0 0 0 0 0 0 0 0 0 0 0 0 0 0 0 0 0 0 0 0 0 0 0 0 0 0 0 0 0 0 0 0 0 0 0
0 0 0 0 0 0 0 -0 0 0 0 0 0 0 0 0 0 0 0 0 0 0 0 0 0 0 0 0 0 0 0 0 0 0 0 0 0 0 0 0 0 0 0 0 0
0 0 0 0 0 0 0 0 0 0 0 0 0 0 0 0 0 0 0 0 0 0 0 0 0 0 0 0 0 0 0 0 0 0 0 0 0 0 0 0 0 0 0 0 0
0 0 0 0 0 0 0 0 0 0 0 0 0 0 0 0 0 0 0 0 0 0 0 0 0 0 0 0 0 0 0 0 0 0 0 0 0 0 0 -0 0 0 0 0 0
0 0 0 0 0 0 0 0 0 -0 0 -0 0 0 0 0 0 0 0 0 0 0 0 0 0 0 0 0 0 0 0 0 0 0 0 0 0 0 -0 0 0 0 0 0 0
0 0 0 0 0 0 0 0 0 0 0 -0 -0 -0 0 0 0 0 0 0 0 0 0 0 0 0 0 0 0 0 0 0 0 0 0 0 0 0 0 0 0 0 0 0 0
0 0 0 0 0 0 0 0 0 0 0 -0 0 -0 0 0 0 0 0 0 0 0 0 0 0 0 0 0 0 0 0 0 0 0 0 0 0 0 0 0 0 0 0 0 0
0 0 0 0 0 0 0 0 0 0 0 0 -0 -0 -0 0 0 0 0 0 0 0 0 0 0 0 0 0 0 0 0 0 0 0 0 0 0 0 0 -0 -0 -0 -0 0 0
0 0 0 0 0 0 0 0 0 0 0 0 -0 -0 -0 -0 0 0 0 0 0 0 0 0 0 0 0 0 0 0 0 0 0 0 0 0 0 0 0 -0 -0 -0 -0 0 0
0 0 0 0 0 0 0 0 0 0 0 0 0 0 -0 -0 0 0 0 0 0 0 0 0 0 0 0 0 0 0 0 0 0 0 0 0 0 0 0 0 0 0 0 0 0
0 0 0 0 0 0 0 0 0 0 0 -0 -0 -0 -0 -0 -0 -0 0 0 0 0 0 0 0 0 0 0 0 0 0 0 0 0 0 0 0 0 0 0 0 0 0 0 0
Wind_Speed_500mb
27 28 30 29 28 27 28 28 27 29 31 29 30 34 33 37 31 31 34 28 24 25 23 22 21 16 18 18 18 9 3 7 9 12 11 13 10 6 11 19 21 19 11 11 49
33 28 30 31 30 31 30 28 27 26 31 35 33 31 32 36 39 35 30 31 27 25 24 20 25 16 11 12 14 13 9 17 12 11 8 8 9 12 11 13 18 22 23 17 56
35 35 33 30 30 31 33 32 28 28 27 32 36 35 29 30 35 8 6 9 8 5 15 23 21 18 12 13 17 12 19 7 11 24 13 12 11 13 14 9 25 46 39 35 58
37 34 38 39 35 35 34 35 33 30 27 29 35 37 31 20 10 8 11 8 7 8 14 15 21 14 10 13 19 6 15 25 23 41 25 9 19 12 31 30 19 36 40 48 61
43 45 41 40 42 42 39 36 37 34 29 29 32 35 32 14 31 19 21 21 19 16 12 14 22 14 11 10 19 8 13 20 40 48 45 40 26 21 30 32 33 25 42 54 61
47 42 39 40 41 44 42 38 37 37 33 32 32 33 26 16 19 18 35 34 23 14 14 18 9 9 11 10 13 12 25 39 44 52 30 13 20 15 39 40 35 35 43 53 64
44 46 44 43 39 40 42 40 37 36 36 34 32 33 28 52 21 14 29 28 23 16 18 18 23 16 2 6 14 31 11 15 12 19 18 24 19 20 48 27 46 49 50 55 65
47 54 50 51 47 48 44 44 39 37 38 35 33 31 28 48 43 44 46 41 32 27 23 19 17 18 14 12 12 9 7 13 6 15 15 26 35 26 47 44 48 52 55 60 67
51 54 53 52 48 47 39 42 43 40 35 32 30 25 29 26 23 15 36 52 45 27 30 18 15 13 7 7 9 8 7 11 10 22 10 18 17 21 46 45 56 60 62 65 69
62 65 58 50 49 43 44 37 41 44 36 27 30 16 37 30 13 16 8 18 29 19 12 16 15 7 3 8 16 15 13 11 13 10 11 11 31 14 12 38 56 59 65 67 72
67 64 64 57 52 47 34 35 31 20 42 38 22 34 13 1 14 15 11 14 22 16 13 12 8 21 25 31 12 7 9 14 4 10 10 14 35 29 37 25 35 52 62 74 78
58 57 59 55 53 53 54 50 40 11 17 50 72 73 73 62 34 28 25 17 18 12 12 5 31 16 12 10 13 14 12 11 10 10 11 17 30 21 18 24 48 59 62 74 81
52 59 51 42 48 57 63 77 54 40 17 30 65 81 64 59 53 55 34 26 11 17 20 20 9 28 18 11 22 26 34 13 12 9 6 7 19 14 15 45 47 63 65 69 76
52 47 47 55 50 51 60 64 53 52 9 13 22 37 61 51 23 81 62 27 11 24 11 19 14 9 14 27 25 26 16 20 13 4 11 5 13 17 12 24 21 52 68 76 76
50 50 47 39 56 25 27 37 49 44 20 15 24 18 34 58 15 35 78 52 20 15 13 19 14 32 24 23 30 14 16 20 17 11 1 16 6 14 5 18 21 25 60 84 93
48 47 43 43 51 55 54 28 24 23 23 13 22 22 22 51 6 8 47 35 30 8 9 15 5 14 15 13 28 11 5 6 6 8 14 34 18 17 17 14 13 28 56 77 86
49 47 44 42 58 51 42 44 15 41 6 11 12 20 26 30 31 12 30 40 22 15 29 5 17 7 10 10 10 14 14 2 1 4 21 6 17 45 14 17 16 24 46 45 55
45 47 49 52 45 44 32 13 25 18 40 7 18 29 28 20 27 14 27 36 42 6 5 26 12 31 14 16 14 34 27 11 15 8 7 6 16 13 19 43 53 60 48 38 33
43 46 57 60 47 37 33 28 9 8 14 13 15 26 28 19 17 23 28 31 36 41 20 14 15 4 12 10 18 12 25 15 10 5 3 10 13 17 20 22 18 28 36 50 32
46 45 71 61 52 38 17 48 12 17 31 29 22 22 33 29 19 33 32 29 16 51 6 12 4 8 15 7 9 19 16 13 5 8 10 9 9 11 7 22 13 13 26 33 26
47 23 52 42 51 24 17 15 17 29 42 22 24 27 16 31 29 27 25 15 43 36 29 11 10 3 7 18 41 8 14 10 9 9 11 4 12 13 24 8 15 19 34 35 31
56 16 32 47 14 8 20 14 20 26 29 25 16 32 37 34 29 26 34 27 43 27 39 26 7 9 17 7 3 4 12 30 17 24 12 4 13 3 10 13 14 16 24 32 30
36 31 24 65 10 15 6 14 26 33 32 13 10 16 16 24 29 39 23 18 41 36 32 25 11 5 10 9 5 13 15 23 35 7 28 19 31 5 4 7 6 8 18 24 26
26 8 21 58 20 25 19 14 17 38 41 25 33 36 39 42 43 20 27 15 45 41 33 45 9 32 32 28 13 11 17 15 34 25 35 32 21 5 8 10 6 15 25 30 29
48 15 26 8 18 12 11 11 17 13 34 35 13 46 34 29 37 40 40 13 20 34 30 26 17 25 36 5 11 15 30 19 20 42 24 49 14 23 20 16 23 31 29 30 32
20 17 15 10 29 29 28 18 33 29 15 15 25 35 40 39 43 24 20 23 22 12 32 10 10 10 8 25 11 8 15 27 34 42 25 21 22 15 26 21 14 31 38 42 40
62 40 39 16 11 16 17 29 25 23 28 39 31 24 26 29 34 50 62 45 14 24 22 18 10 7 16 3 12 13 32 26 31 41 45 28 47 4 12 16 25 45 54 57 51
Wind_Direction_500mb
285 295 303 309 310 313 319 322 327 330 329 323 315 311 307 302 296 284 281 273 265 281 267 244 236 233 233 223 208 182 98 227 236 179 247 281 211 222 193 168 185 203 225 241 183
271 284 291 294 300 307 309 313 318 324 327 329 324 316 309 305 307 295 278 265 267 262 257 249 221 225 214 213 205 178 170 219 212 213 217 296 243 205 175 173 206 219 217 204 182
285 267 274 275 283 291 298 304 306 313 322 324 327 324 316 314 317 288 190 192 201 251 255 244 222 203 215 210 205 203 232 194 248 246 275 302 287 213 173 222 210 213 204 192 188
281 283 268 268 270 276 281 290 297 299 310 317 322 325 322 311 284 186 183 199 253 294 289 248 214 184 193 209 217 230 240 215 252 255 272 255 279 229 203 222 223 240 221 196 195
281 281 279 274 268 272 277 282 289 293 297 305 313 321 322 288 257 242 232 253 267 280 288 235 210 194 179 211 229 226 230 239 249 255 258 268 254 257 246 242 238 238 213 206 206
275 283 278 273 275 269 272 276 275 283 290 293 304 310 311 284 270 243 243 247 258 264 256 228 235 222 247 231 182 239 240 244 257 260 253 232 260 210 256 252 231 226 217 213 213
275 269 277 270 276 279 274 273 271 273 279 282 290 299 284 266 273 254 245 236 228 229 257 243 231 238 318 296 260 263 284 289 246 262 227 250 275 232 247 248 224 219 219 217 218
277 269 275 275 274 272 274 270 271 269 272 273 277 286 267 290 280 258 233 237 227 236 252 257 232 252 222 284 313 230 158 243 215 198 236 177 258 241 243 234 220 221 220 219 222
272 272 276 274 277 268 279 270 264 267 265 265 266 273 270 274 289 291 244 238 241 248 254 239 213 219 208 138 339 325 232 216 273 199 192 177 254 244 246 230 227 226 224 222 224
268 267 270 276 273 271 267 275 260 259 257 252 253 263 253 269 276 293 285 232 217 218 227 208 219 175 105 130 214 225 225 223 211 232 198 206 250 258 242 226 226 234 228 224 226
265 270 270 271 263 260 265 265 263 250 231 212 201 214 222 226 307 284 255 216 197 204 179 189 177 210 193 203 213 203 244 232 245 229 204 232 244 240 241 234 240 237 236 230 229
273 266 265 261 258 253 257 244 225 248 246 240 240 246 252 266 282 266 224 196 183 196 153 126 234 212 209 198 205 232 231 247 287 246 175 265 261 243 221 228 224 238 235 235 235
274 273 276 271 262 252 244 246 241 248 258 240 240 238 233 236 242 246 215 202 186 189 195 202 211 193 186 191 210 228 231 223 217 344 255 295 277 245 230 230 236 240 247 244 235
272 269 274 279 273 256 249 246 239 237 254 247 209 245 223 218 254 228 222 193 210 206 165 237 210 174 195 220 194 229 184 234 239 278 260 149 281 258 243 235 213 228 233 240 237
264 260 262 245 264 247 230 247 241 230 237 235 195 213 197 180 166 207 208 200 192 183 162 224 188 199 207 214 189 224 183 194 203 192 330 234 252 268 243 239 238 233 230 235 238
260 261 259 253 249 259 257 225 230 218 224 233 146 167 151 198 234 111 179 206 214 201 245 236 210 186 218 180 188 180 88 90 97 126 238 235 204 246 218 211 242 244 240 241 243
258 256 253 252 251 250 254 260 250 215 170 206 178 169 165 183 208 164 181 192 180 167 227 191 226 253 178 156 146 168 135 244 30 203 239 231 183 239 241 241 219 238 245 249 249
262 253 248 249 247 249 238 240 226 306 203 195 150 165 185 153 207 189 168 201 211 194 146 202 253 193 186 194 178 188 175 172 192 211 249 113 227 243 229 238 247 247 254 257 259
262 253 248 242 243 239 230 233 224 220 293 281 155 166 200 188 165 182 196 199 201 195 187 178 245 167 204 165 159 205 210 182 112 28 107 222 290 301 257 260 242 243 241 249 255
253 256 255 244 236 228 237 259 259 232 270 285 252 192 196 188 163 190 184 194 208 199 219 194 251 197 196 135 238 180 177 183 217 163 230 260 258 231 288 263 266 239 232 233 221
247 250 262 249 222 194 223 239 221 223 248 258 279 263 222 190 192 194 196 209 196 187 184 172 158 312 111 197 196 176 191 208 177 162 214 240 254 221 233 298 262 241 233 228 218
235 227 240 191 184 164 223 211 234 248 263 255 251 261 278 245 190 200 211 198 192 147 190 198 147 182 205 245 287 236 220 206 207 219 228 165 259 239 264 280 270 269 239 224 225
221 213 211 187 202 188 266 235 233 252 248 225 261 227 255 238 207 206 201 197 172 177 180 166 217 57 353 349 208 198 199 206 225 63 216 216 249 171 349 323 329 181 190 201 210
202 188 190 203 204 196 191 223 223 240 248 242 250 252 266 262 283 228 214 183 190 199 179 170 185 208 213 221 131 215 210 211 214 224 234 228 237 307 249 258 242 202 195 196 209
187 206 192 196 191 172 141 182 216 227 227 220 250 232 233 246 249 249 209 173 193 198 185 173 204 213 229 200 186 212 213 193 200 226 215 239 225 229 262 232 215 214 198 199 208
246 139 188 173 148 177 207 214 234 240 193 227 232 253 228 227 233 286 218 189 185 179 187 182 229 130 241 230 207 235 220 201 214 233 238 229 244 208 237 241 183 206 208 207 209
221 172 176 190 135 155 202 212 208 220 246 230 227 239 237 233 236 247 263 230 206 160 180 164 130 96 231 131 113 276 220 203 219 230 222 224 236 206 233 213 203 212 216 215 210
Wind_Speed_850mb
27 28 30 29 28 27 28 28 27 29 31 29 30 34 33 37 31 31 34 28 24 25 23 22 21 16 18 18 18 9 3 7 9 12 11 13 10 6 11 19 21 19 11 11 49
33 28 30 31 30 31 30 28 27 26 31 35 33 31 32 36 39 35 30 31 27 25 24 20 25 16 11 12 14 13 9 17 12 11 8 8 9 12 11 13 18 22 23 17 56
35 35 33 30 30 31 33 32 28 28 27 32 36 35 29 30 35 8 6 9 8 5 15 23 21 18 12 13 17 12 19 7 11 24 13 12 11 13 14 9 25 46 39 35 58
37 34 38 39 35 35 34 35 33 30 27 29 35 37 31 20 10 8 11 8 7 8 14 15 21 14 10 13 19 6 15 25 23 41 25 9 19 12 31 30 19 36 40 48 61
43 45 41 40 42 42 39 36 37 34 29 29 32 35 32 14 31 19 21 21 19 16 12 14 22 14 11 10 19 8 13 20 40 48 45 40 26 21 30 32 33 25 42 54 61
47 42 39 40 41 44 42 38 37 37 33 32 32 33 26 16 19 18 35 34 23 14 14 18 9 9 11 10 13 12 25 39 44 52 30 13 20 15 39 40 35 35 43 53 64
44 46 44 43 39 40 42 40 37 36 36 34 32 33 28 52 21 14 29 28 23 16 18 18 23 16 2 6 14 31 11 15 12 19 18 24 19 20 48 27 46 49 50 55 65
47 54 50 51 47 48 44 44 39 37 38 35 33 31 28 48 43 44 46 41 32 27 23 19 17 18 14 12 12 9 7 13 6 15 15 26 35 26 47 44 48 52 55 60 67
51 54 53 52 48 47 39 42 43 40 35 32 30 25 29 26 23 15 36 52 45 27 30 18 15 13 7 7 9 8 7 11 10 22 10 18 17 21 46 45 56 60 62 65 69
62 65 58 50 49 43 44 37 41 44 36 27 30 16 37 30 13 16 8 18 29 19 12 16 15 7 3 8 16 15 13 11 13 10 11 11 31 14 12 38 56 59 65 67 72
67 64 64 57 52 47 34 35 31 20 42 38 22 34 13 1 14 15 11 14 22 16 13 12 8 21 25 31 12 7 9 14 4 10 10 14 35 29 37 25 35 52 62 74 78
58 57 59 55 53 53 54 50 40 11 17 50 72 73 73 62 34 28 25 17 18 12 12 5 31 16 12 10 13 14 12 11 10 10 11 17 30 21 18 24 48 59 62 74 81
52 59 51 42 48 57 63 77 54 40 17 30 65 81 64 59 53 55 34 26 11 17 20 20 9 28 18 11 22 26 34 13 12 9 6 7 19 14 15 45 47 63 65 69 76
52 47 47 55 50 51 60 64 53 52 9 13 22 37 61 51 23 81 62 27 11 24 11 19 14 9 14 27 25 26 16 20 13 4 11 5 13 17 12 24 21 52 68 76 76
50 50 47 39 56 25 27 37 49 44 20 15 24 18 34 58 15 35 78 52 20 15 13 19 14 32 24 23 30 14 16 20 17 11 1 16 6 14 5 18 21 25 60 84 93
48 47 43 43 51 55 54 28 24 23 23 13 22 22 22 51 6 8 47 35 30 8 9 15 5 14 15 13 28 11 5 6 6 8 14 34 18 17 17 14 13 28 56 77 86
49 47 44 42 58 51 42 44 15 41 6 11 12 20 26 30 31 12 30 40 22 15 29 5 17 7 10 10 10 14 14 2 1 4 21 6 17 45 14 17 16 24 46 45 55
45 47 49 52 45 44 32 13 25 18 40 7 18 29 28 20 27 14 27 36 42 6 5 26 12 31 14 16 14 34 27 11 15 8 7 6 16 13 19 43 53 60 48 38 33
43 46 57 60 47 37 33 28 9 8 14 13 15 26 28 19 17 23 28 31 36 41 20 14 15 4 12 10 18 12 25 15 10 5 3 10 13 17 20 22 18 28 36 50 32
46 45 71 61 52 38 17 48 12 17 31 29 22 22 33 29 19 33 32 29 16 51 6 12 4 8 15 7 9 19 16 13 5 8 10 9 9 11 7 22 13 13 26 33 26
47 23 52 42 51 24 17 15 17 29 42 22 24 27 16 31 29 27 25 15 43 36 29 11 10 3 7 18 41 8 14 10 9 9 11 4 12 13 24 8 15 19 34 35 31
56 16 32 47 14 8 20 14 20 26 29 25 16 32 37 34 29 26 34 27 43 27 39 26 7 9 17 7 3 4 12 30 17 24 12 4 13 3 10 13 14 16 24 32 30
36 31 24 65 10 15 6 14 26 33 32 13 10 16 16 24 29 39 23 18 41 36 32 25 11 5 10 9 5 13 15 23 35 7 28 19 31 5 4 7 6 8 18 24 26
26 8 21 58 20 25 19 14 17 38 41 25 33 36 39 42 43 20 27 15 45 41 33 45 9 32 32 28 13 11 17 15 34 25 35 32 21 5 8 10 6 15 25 30 29
48 15 26 8 18 12 11 11 17 13 34 35 13 46 34 29 37 40 40 13 20 34 30 26 17 25 36 5 11 15 30 19 20 42 24 49 14 23 20 16 23 31 29 30 32
20 17 15 10 29 29 28 18 33 29 15 15 25 35 40 39 43 24 20 23 22 12 32 10 10 10 8 25 11 8 15 27 34 42 25 21 22 15 26 21 14 31 38 42 40
62 40 39 16 11 16 17 29 25 23 28 39 31 24 26 29 34 50 62 45 14 24 22 18 10 7 16 3 12 13 32 26 31 41 45 28 47 4 12 16 25 45 54 57 51
Wind_Direction_850mb
285 295 303 309 310 313 319 322 327 330 329 323 315 311 307 302 296 284 281 273 265 281 267 244 236 233 233 223 208 182 98 227 236 179 247 281 211 222 193 168 185 203 225 241 183
271 284 291 294 300 307 309 313 318 324 327 329 324 316 309 305 307 295 278 265 267 262 257 249 221 225 214 213 205 178 170 219 212 213 217 296 243 205 175 173 206 219 217 204 182
285 267 274 275 283 291 298 304 306 313 322 324 327 324 316 314 317 288 190 192 201 251 255 244 222 203 215 210 205 203 232 194 248 246 275 302 287 213 173 222 210 213 204 192 188
281 283 268 268 270 276 281 290 297 299 310 317 322 325 322 311 284 186 183 199 253 294 289 248 214 184 193 209 217 230 240 215 252 255 272 255 279 229 203 222 223 240 221 196 195
281 281 279 274 268 272 277 282 289 293 297 305 313 321 322 288 257 242 232 253 267 280 288 235 210 194 179 211 229 226 230 239 249 255 258 268 254 257 246 242 238 238 213 206 206
275 283 278 273 275 269 272 276 275 283 290 293 304 310 311 284 270 243 243 247 258 264 256 228 235 222 247 231 182 239 240 244 257 260 253 232 260 210 256 252 231 226 217 213 213
275 269 277 270 276 279 274 273 271 273 279 282 290 299 284 266 273 254 245 236 228 229 257 243 231 238 318 296 260 263 284 289 246 262 227 250 275 232 247 248 224 219 219 217 218
277 269 275 275 274 272 274 270 271 269 272 273 277 286 267 290 280 258 233 237 227 236 252 257 232 252 222 284 313 230 158 243 215 198 236 177 258 241 243 234 220 221 220 219 222
272 272 276 274 277 268 279 270 264 267 265 265 266 273 270 274 289 291 244 238 241 248 254 239 213 219 208 138 339 325 232 216 273 199 192 177 254 244 246 230 227 226 224 222 224
268 267 270 276 273 271 267 275 260 259 257 252 253 263 253 269 276 293 285 232 217 218 227 208 219 175 105 130 214 225 225 223 211 232 198 206 250 258 242 226 226 234 228 224 226
265 270 270 271 263 260 265 265 263 250 231 212 201 214 222 226 307 284 255 216 197 204 179 189 177 210 193 203 213 203 244 232 245 229 204 232 244 240 241 234 240 237 236 230 229
273 266 265 261 258 253 257 244 225 248 246 240 240 246 252 266 282 266 224 196 183 196 153 126 234 212 209 198 205 232 231 247 287 246 175 265 261 243 221 228 224 238 235 235 235
274 273 276 271 262 252 244 246 241 248 258 240 240 238 233 236 242 246 215 202 186 189 195 202 211 193 186 191 210 228 231 223 217 344 255 295 277 245 230 230 236 240 247 244 235
272 269 274 279 273 256 249 246 239 237 254 247 209 245 223 218 254 228 222 193 210 206 165 237 210 174 195 220 194 229 184 234 239 278 260 149 281 258 243 235 213 228 233 240 237
264 260 262 245 264 247 230 247 241 230 237 235 195 213 197 180 166 207 208 200 192 183 162 224 188 199 207 214 189 224 183 194 203 192 330 234 252 268 243 239 238 233 230 235 238
260 261 259 253 249 259 257 225 230 218 224 233 146 167 151 198 234 111 179 206 214 201 245 236 210 186 218 180 188 180 88 90 97 126 238 235 204 246 218 211 242 244 240 241 243
258 256 253 252 251 250 254 260 250 215 170 206 178 169 165 183 208 164 181 192 180 167 227 191 226 253 178 156 146 168 135 244 30 203 239 231 183 239 241 241 219 238 245 249 249
262 253 248 249 247 249 238 240 226 306 203 195 150 165 185 153 207 189 168 201 211 194 146 202 253 193 186 194 178 188 175 172 192 211 249 113 227 243 229 238 247 247 254 257 259
262 253 248 242 243 239 230 233 224 220 293 281 155 166 200 188 165 182 196 199 201 195 187 178 245 167 204 165 159 205 210 182 112 28 107 222 290 301 257 260 242 243 241 249 255
253 256 255 244 236 228 237 259 259 232 270 285 252 192 196 188 163 190 184 194 208 199 219 194 251 197 196 135 238 180 177 183 217 163 230 260 258 231 288 263 266 239 232 233 221
247 250 262 249 222 194 223 239 221 223 248 258 279 263 222 190 192 194 196 209 196 187 184 172 158 312 111 197 196 176 191 208 177 162 214 240 254 221 233 298 262 241 233 228 218
235 227 240 191 184 164 223 211 234 248 263 255 251 261 278 245 190 200 211 198 192 147 190 198 147 182 205 245 287 236 220 206 207 219 228 165 259 239 264 280 270 269 239 224 225
221 213 211 187 202 188 266 235 233 252 248 225 261 227 255 238 207 206 201 197 172 177 180 166 217 57 353 349 208 198 199 206 225 63 216 216 249 171 349 323 329 181 190 201 210
202 188 190 203 204 196 191 223 223 240 248 242 250 252 266 262 283 228 214 183 190 199 179 170 185 208 213 221 131 215 210 211 214 224 234 228 237 307 249 258 242 202 195 196 209
187 206 192 196 191 172 141 182 216 227 227 220 250 232 233 246 249 249 209 173 193 198 185 173 204 213 229 200 186 212 213 193 200 226 215 239 225 229 262 232 215 214 198 199 208
246 139 188 173 148 177 207 214 234 240 193 227 232 253 228 227 233 286 218 189 185 179 187 182 229 130 241 230 207 235 220 201 214 233 238 229 244 208 237 241 183 206 208 207 209
221 172 176 190 135 155 202 212 208 220 246 230 227 239 237 233 236 247 263 230 206 160 180 164 130 96 231 131 113 276 220 203 219 230 222 224 236 206 233 213 203 212 216 215 210